PEGASUS DEB

Satellite information

Favourite Embed

Satellite Type and Status

DEBRISIN ORBIT

Key statistics

Satellite PEGASUS DEB at a glance.

Uptime

11482

Days in orbit

Revolutions

≈ 14.7

Per day

Orbit

LEO

Low Earth Orbit

Inclination

82.0

Latest

Satellite identification and parameters

Extended collection of information and parameters for PEGASUS DEB.

Object identification

Identified? True

Debris? True

Object name: PEGASUS DEB

International designator: 1994-029AFJ

Object number (NORAD): 39323

Object ID (CCSDS): 39323

Country: UNITED STATES OF AMERICA (US)

Current information (Y/N): Y

RCS size: SMALL

Orbital parameters

Period: 97.947 minutes

Inclination: 81.987 deg

SMA: 7038.607 km

Apoapsis: 783.296 km

Periapsis: 537.647 km

RAAN: 221.37 deg

Eccentricy: 0.01745012

Argument of periapsis: 14.8519 deg

Mean anomaly: 345.7718 deg

Mean motion: 14.70187453 rev/day

Mean motion (dot): 0.00013005 rev/day2

B* drag term: 0.0017005901 1/REarth

Two-line elements (TLE)

Creation date: Oct. 25, 2025, 3:11 a.m.

Reference frame: TEME

Reference center: EARTH

Epoch: Oct. 24, 2025, 12:10 p.m. UTC

TLE line 0: 0 PEGASUS DEB

TLE line 1: 1 39323U 94029AFJ 25297.50762338 .00013005 00000-0 17006-2 0 9998

TLE line 2: 2 39323 81.9870 221.3700 0174501 14.8519 345.7718 14.70187453706824

Live tracking on map

Real-time ground track for satellite PEGASUS DEB.

In-orbit conjunctions

A list of the most updated potential collisions computed for object PEGASUS DEB.

Target Orbit TCA Probability of collision Miss distance Type
NOAA 16 DEB SSO 2025-09-02 08:01:09 0.0003347375 76.0 (m) DEBRIS
CZ-6A DEB LEO 2025-01-07 03:51:21 0.000104405 468.0 (m) DEBRIS
DELTA 1 R/B(1) LEO 2024-08-10 08:48:23 0.0003122111 800.0 (m) ROCKET BODY
IRIDIUM 71 LEO 2024-05-28 00:59:37 0.0003384097 561.0 (m) PAYLOAD

Associated space launch

PEGASUS DEB was lifted into orbit during the mission ‘Pegasus HAPS | Space Test Experiments Platform 2 (STEP-2)’, on board a Pegasus HAPS space rocket.

The launch took place on May 19, 1994, 5:03 p.m. from Edwards Air Force Base.

For more information about the launch, click the button.

Launch to space Pegasus HAPS | Space Test Experiments Platform 2 (STEP-2)
Pegasus HAPS | Space Test Experiments Platform 2 (STEP-2)

Agency: N/A

Status: Launch Successful

Launch date: May 19, 1994, 5:03 p.m. UTC

Rocket: Pegasus HAPS

Launch pad: Edwards Air Force Base

Location: Air launch to orbit

...

Latest news about this satellite

There are no fresh news available about this satellite. Check back as we update our databases every day.


Newsletter sign-up

Weekly statistics, charts and insights to help you stay on top of the space industry.